sat.trackr.live / text

‹ back to catalog

STARLINK-2050

NORAD 47357 · 2021-005J

PAYLOAD ACTIVE UNKNOWN

§ Identity

Operator
Country
US
Launch date
2021-01-20
Launch site
AFETR
Launch vehicle
Mass (kg)
RCS (m²)

Purposes: comms

External: N2YO · Heavens-Above · Gunter

§ Orbital elements

Epoch: 2026-09-19T22:01:25.428288Z

Period
94.01 min
Inclination
53.1592°
Eccentricity
0.0001507
Mean motion
15.31706364 rev/d
Perigee alt
469.7 km
Apogee alt
471.8 km
Semi-major
6,848.9 km
B*
1.8891e-5
RAAN
238.9804°
Arg perigee
94.7021°
Mean anomaly
265.4152°
Rev number
31,278

§ Raw data

STARLINK-20501 47357U 21005J   26262.91765542  .00000221  00000+0  18891-4 0  99962 47357  53.1592 238.9804 0001507  94.7021 265.4152 15.31706364312785

JSON: /api/v1/satellites/47357 · /tle

For live sub-satellite position, see the globe view (requires WebGL).

§ Visibility from observer

Set your observer location to see the next 7 days of passes ≥ 10°. The values pass through the URL so the page stays shareable.

No JS? Fill the form by hand. The geolocation button needs JavaScript.